Location: DeLan Observatory
(46.9670°N, 70.5500°W)
Time: 15:05:42
(UTC-05:00)

N. Korean satellite - Visible Passes

Search period start: 20 November 2019 00:00
Search period end: 30 November 2019 00:00
Orbit: 456 x 506 km, 97.2° (Epoch: 20 November)

Date Brightness Start Highest point End Pass type
(mag) Time Alt. Az. Time Alt. Az. Time Alt. Az.
20 Nov 7.4 05:26:18 10° NNE 05:29:59 55° E 05:33:34 10° S visible
20 Nov 9.6 17:38:35 10° SW 17:41:20 20° W 17:44:06 10° NW visible
21 Nov 8.9 05:01:16 10° NE 05:04:28 27° E 05:07:39 10° SSE visible
21 Nov 8.3 17:12:21 10° SSW 17:15:47 37° W 17:19:16 10° NNW visible
22 Nov 9.9 04:36:44 10° NE 04:38:53 15° E 04:41:01 10° SE visible
22 Nov 6.9 06:08:59 10° N 06:12:32 44° WNW 06:16:00 10° SW visible
22 Nov 6.8 16:46:40 10° S 16:50:20 78° WSW 16:54:04 10° NNW visible
23 Nov 6.6 05:43:28 10° NNE 05:47:11 89° WNW 05:50:49 10° SSW visible
23 Nov 10.1 17:56:55 10° WSW 17:58:41 13° W 18:00:27 10° WNW visible
24 Nov 7.9 05:18:12 10° NNE 05:21:45 43° E 05:25:13 10° S visible
24 Nov 9.2 17:30:01 10° SSW 17:33:04 24° W 17:36:09 10° NW visible
25 Nov 9.2 04:53:16 10° NE 04:56:13 22° E 04:59:07 10° SSE visible
25 Nov 7.5 06:26:25 10° N 06:29:36 28° WNW 06:32:44 10° SW visible
25 Nov 7.8 17:03:58 10° S 17:07:33 47° W 17:11:10 10° NNW visible
26 Nov 10.1 04:29:09 10° ENE 04:30:34 12° E 04:31:59 10° ESE visible
26 Nov 6.7 06:00:43 10° N 06:04:20 54° WNW 06:07:51 10° SSW visible
26 Nov 6.6 16:38:25 10° SSE 16:42:07 84° ENE 16:45:51 10° N visible
27 Nov 6.8 05:35:16 10° NNE 05:38:57 73° ESE 05:42:32 10° S visible
27 Nov 9.9 17:48:02 10° SW 17:50:22 16° W 17:52:43 10° NW visible
28 Nov 8.3 05:10:04 10° NNE 05:13:28 35° E 05:16:46 10° SSE visible
28 Nov 8.8 17:21:29 10° SSW 17:24:46 30° W 17:28:05 10° NNW visible
29 Nov 9.5 04:45:17 10° NE 04:47:53 18° E 04:50:26 10° SE visible
29 Nov 7.2 06:18:03 10° N 06:21:23 34° WNW 06:24:39 10° SW visible
29 Nov 7.3 16:55:37 10° S 16:59:16 59° W 17:02:58 10° NNW visible
